GW0416 Weather Reports


Display with metric or nautical units.
time (UTC)temp
F
wind
direction
speed
MPH
gust
MPH
rain 1hr
in
rain 24hr
in
rain mn
in
humidity
%
barometer
mb
20260504234528 53 355 26.0 36.0 0.00 0.00 0.00 24 1015.4
20260504233028 52 24 25.0 34.0 0.00 0.00 0.00 25 1015.2
20260504231530 53 5 30.0 38.0 0.00 0.00 0.00 25 1015.1
20260504230032 53 351 28.0 41.0 0.00 0.00 0.00 25 1015.1
20260504224534 53 9 21.0 43.0 0.00 0.00 0.00 26 1015.1
20260504223030 53 343 29.0 38.0 0.00 0.00 0.00 27 1015.0
20260504221538 53 5 23.0 36.0 0.00 0.00 0.00 30 1015.1
20260504220028 53 360 27.0 37.0 0.00 0.00 0.00 29 1015.0
20260504214531 53 336 24.0 36.0 0.00 0.00 0.00 30 1015.1
20260504213039 52 5 23.0 37.0 0.00 0.00 0.00 32 1015.2
20260504211535 51 343 24.0 32.0 0.00 0.00 0.00 34 1015.5
20260504210031 52 9 21.0 36.0 0.00 0.00 0.00 33 1015.5
20260504204533 51 343 24.0 38.0 0.00 0.00 0.00 33 1015.7
20260504203033 51 352 19.0 32.0 0.00 0.00 0.00 33 1015.6
20260504201530 50 5 19.0 36.0 0.00 0.00 0.00 35 1015.4
20260504200032 51 347 23.0 35.0 0.00 0.00 0.00 35 1015.4
20260504194529 52 20 26.0 36.0 0.00 0.00 0.00 34 1015.4
20260504193032 54 349 20.0 34.0 0.00 0.00 0.00 33 1015.3
20260504191546 51 355 23.0 39.0 0.00 0.00 0.00 38 1015.3
20260504190030 52 355 23.0 34.0 0.00 0.00 0.00 39 1015.3
20260504184540 53 350 22.0 38.0 0.00 0.00 0.00 39 1015.3
20260504183032 52 355 28.0 37.0 0.00 0.00 0.00 39 1015.3
20260504181533 51 343 21.0 33.0 0.00 0.00 0.00 39 1015.3
20260504180035 52 350 19.0 32.0 0.00 0.00 0.00 39 1015.5
20260504174530 52 355 24.0 33.0 0.00 0.00 0.00 39 1015.5
20260504173028 51 313 21.0 31.0 0.00 0.00 0.00 39 1015.5
20260504171530 51 348 19.0 28.0 0.00 0.00 0.00 42 1015.8
20260504081530 46 34 21.0 33.0 0.00 0.00 0.00 63 1015.1
20260504044534 54 39 24.0 34.0 0.00 0.00 0.00 42 1010.5
20260504043036 56 34 28.0 36.0 0.00 0.00 0.00 42 1009.9
20260504041530 55 26 15.0 19.0 0.00 0.00 0.00 43 1009.4
20260504040032 56 22 14.0 17.0 0.00 0.00 0.00 41 1009.1
20260504034531 57 30 13.0 19.0 0.00 0.00 0.00 40 1008.7
20260504033033 57 30 15.0 20.0 0.00 0.00 0.00 39 1008.4
20260504031532 58 33 14.0 20.0 0.00 0.00 0.00 38 1008.2
20260504030031 60 25 19.0 25.0 0.00 0.00 0.00 36 1007.9
20260504024535 61 26 16.0 27.0 0.00 0.00 0.00 34 1007.7
20260504023030 62 26 14.0 19.0 0.00 0.00 0.00 31 1007.6
20260504021532 65 26 16.0 22.0 0.00 0.00 0.00 28 1007.6
20260504020032 67 9 10.0 16.0 0.00 0.00 0.00 23 1007.5
20260504014531 68 355 16.0 23.0 0.00 0.00 0.00 21 1007.7
20260504013037 70 351 18.0 22.0 0.00 0.00 0.00 20 1007.6
20260504011530 70 360 18.0 24.0 0.00 0.00 0.00 20 1007.6
20260504010031 70 336 17.0 26.0 0.00 0.00 0.00 20 1007.6
20260504004530 71 330 16.0 27.0 0.00 0.00 0.00 20 1007.7
20260504003040 71 348 15.0 27.0 0.00 0.00 0.00 20 1007.9
20260504001530 72 360 16.0 24.0 0.00 0.00 0.00 20 1008.1
20260504000028 71 345 14.0 24.0 0.00 0.00 0.00 20 1008.3